Location: Pel�-Koumbol�
(14.9505°N, 3.0798°W)
Time: 13:51:22
(UTC+00:00)

Cosmos 2278 Rocket - Pass Details

Date: 17 February 2020
Orbit: 840 x 846 km, 71.0° (Epoch: 04 April)

Event Time Altitude Azimuth Distance (km) Brightness Sun altitude
Exits shadow 05:47:29 11° 248° (WSW) 2,370 4.0 -12.3°
Drops below altitude 10° 05:48:25 10° 238° (WSW) 2,460 4.2 -12.1°
Sets 05:52:42 0° 208° (SSW) 3,394 5.2 -11.1°
